Voltar ao catálogo

DELTA 1 DEB

AtivoPO
NORAD 27720·DEBRIS·🇺🇸 United States

Lançado Jan 22, 1965 de Cape Canaveral Space Force Station

Loading…

Próximas Passagens (próximas 24 horas)

TLE

AtualizadoSource: Space-Track

Época: Sep 12, 2026, 00:01 UTC

1 27720U 65004E   26255.00098328  .00000229  00000-0  30589-3 0  9994
2 27720  96.4822 100.6636 1167279 180.6199 179.3482 12.09266156525701

Acompanhe DELTA 1 DEB em tempo real com AllMySat

Download on the App Store